Location: Unspecified
(52.4292°N, 19.3359°E)
Time: 12:28:17
(UTC+02:00)

deb Explorer IX - Pass Details

Date: 24 May 2024
Orbit: 510 x 886 km, 38.7° (Epoch: 13 June)

Event Time Altitude Azimuth Distance (km) Brightness Sun altitude
Rises 22:49:58 0° 234° (SW) 3,042 ? -12.8°
Reaches altitude 10° 22:53:27 10° 210° (SSW) 2,035 ? -13.0°
Enters shadow 22:54:55 13° 193° (SSW) 1,780 ? -13.1°
